Regional Weather Roundup
Issued by NWS

Home | Current Version | Previous Version | Graphics & Text | Print | Product List | Glossary Off
Versions: 1 2 3 4 5 6 7 8 9 10 11 12 13 14 15 16 17 18 19 20 21 22 23 24 25 26 27 28 29 30 31 32 33 34 35 36 37 38 39 40 41 42 43 44 45 46 47 48 49 50

673
ASUS43 KMKX 200510
RWRWI

WISCONSIN REGIONAL WEATHER ROUNDUP
NATIONAL WEATHER SERVICE MILWAUKEE/SULLIVAN WI
1200 AM CDT FRI APR 20 2018

NOTE: "FAIR" INDICATES FEW OR NO CLOUDS BELOW 12,000 FEET WITH NO
SIGNIFICANT WEATHER AND/OR OBSTRUCTIONS TO VISIBILITY.

WIZ001-002-006>008-014>016-023>028-200600-
NORTHWEST WISCONSIN

CITY           SKY/WX    TMP DP  RH WIND       PRES   REMARKS
SUPERIOR ARPT  FAIR      37  17  45 SW5       30.39S WCI  33
ASHLAND        FAIR      29  15  56 SW7       30.40S WCI  22
HAYWARD        FAIR      28  19  69 CALM      30.42R
SIREN          FAIR      37  22  54 W6        30.42F WCI  32
CUMBERLAND     FAIR      32  19  59 CALM      30.42S
RICE LAKE      FAIR      30  27  87 CALM      30.45R
CHETEK         FAIR      28  22  77 CALM      30.44R
LADYSMITH      FAIR      30  21  69 CALM      30.44S
EAU CLAIRE     FAIR      30  22  72 SW3       30.43S
MENOMONIE      FAIR      33  23  68 CALM      30.44S
NEW RICHMOND   FAIR      32  21  65 CALM      30.44F
OSCEOLA        FAIR      30  23  75 CALM      30.47S
$$

WIZ003>005-009-010-017-018-200600-
NORTH CENTRAL WISCONSIN

CITY           SKY/WX    TMP DP  RH WIND       PRES   REMARKS
MANITOWISH WTR FAIR      24  15  68 CALM      30.40R
ARBOR VITAE    FAIR      27  15  59 CALM      30.40S
WOODRUFF       FAIR      27  15  59 CALM      30.40S
RHINELANDER    FAIR      23  14  68 W5        30.40S WCI  17
EAGLE RIVER    FAIR      23  14  66 CALM      30.39S
LAND O LAKES   FAIR      22  13  70 CALM      30.41S
PHILLIPS       FAIR      25  20  80 CALM      30.41S
TOMAHAWK       FAIR      24  15  70 CALM      30.42R
MEDFORD        FAIR      32  17  52 CALM      30.41R
MERRILL          N/A     27  17  66 CALM      30.42R
$$

WIZ029-030-035-036-043>047-200600-
CENTRAL WISCONSIN

CITY           SKY/WX    TMP DP  RH WIND       PRES   REMARKS
WAUSAU         FAIR      35  21  56 NW6       30.40R WCI  30
MOSINEE        FAIR      34  21  60 N5        30.42S WCI  30
MARSHFIELD     FAIR      35  16  45 NW8       30.40S WCI  29
STEVENS POINT  FAIR      27  20  76 CALM      30.43R
WAUPACA        FAIR      41  19  41 W5        30.41S
WAUTOMA        FAIR      34  20  56 CALM      30.43R
WISC RAPIDS    FAIR      29  19  66 CALM      30.43R
CAMP DOUGLAS   FAIR      28  21  73 W5        30.43S WCI  23
$$

WIZ011>013-019>022-031-037>040-048>050-200600-
NORTHEAST WISCONSIN

CITY           SKY/WX    TMP DP  RH WIND       PRES   REMARKS
ANTIGO         FAIR      25  19  79 CALM      30.41R
SHAWANO        FAIR      30  22  73 CALM      30.41R
OCONTO         FAIR      28  18  67 CALM      30.41R
STURGEON BAY   FAIR      33  14  45 CALM      30.42R
GREEN BAY      FAIR      31  23  72 CALM      30.41R
MANITOWOC      FAIR      31  25  78 CALM      30.42R
APPLETON       FAIR      34  19  55 W10       30.39S WCI  26
CLINTONVILLE   FAIR      35  20  53 NW5       30.41S WCI  31
OSHKOSH        FAIR      36  20  52 CALM      30.40S
$$

WIZ032>034-041-042-053>061-200600-
SOUTHWEST WISCONSIN

CITY           SKY/WX    TMP DP  RH WIND       PRES   REMARKS
LA CROSSE      FAIR      32  27  81 CALM      30.46R
SPARTA         FAIR      25  22  88 CALM      30.46S
VIROQUA        FAIR      34  22  63 NW3       30.44R
BOSCOBEL       FAIR      27  24  89 CALM      30.47R
PRAIRIE DU CHI FAIR      30  24  79 CALM      30.46S
PLATTEVILLE    FAIR      37  27  68 N3        30.45S
$$

WIZ056-057-062-063-064-067-068-200600-
SOUTH CENTRAL WISCONSIN

CITY           SKY/WX    TMP DP  RH WIND       PRES   REMARKS
REEDSBURG      FAIR      29  25  84 CALM      30.44S
BARABOO/DELLS  FAIR      29  21  71 CALM      30.43S
LONE ROCK      FAIR      27  25  92 CALM      30.45S
MINERAL POINT  FAIR      37  27  65 CALM      30.44S
MADISON        FAIR      30  23  75 CALM      30.43S
MIDDLETON      FAIR      29  26  87 CALM      30.44S
WATERTOWN      FAIR      30  25  81 CALM      30.42S
MONROE         FAIR      41  21  45 NW8       30.43S
JANESVILLE     FAIR      32  28  86 CALM      30.44R
$$

WIZ051-052-058>065-066-070>072-200600-
SOUTHEAST WISCONSIN

CITY           SKY/WX    TMP DP  RH WIND       PRES   REMARKS
MILWAUKEE      FAIR      41  26  55 W7        30.42R
WAUKESHA       FAIR      34  23  64 W5        30.43S WCI  30
MILWAUKEE/TIMM FAIR      36  23  60 W3        30.43S
RACINE         FAIR      39  25  57 W7        30.44R WCI  34
BURLINGTON     FAIR      31  23  72 CALM      30.43S
KENOSHA        FAIR      37  25  61 W5        30.42S WCI  33
FOND DU LAC    FAIR      29  22  75 SE3       30.41S
SHEBOYGAN      FAIR      40  23  50 NW7       30.40R
WEST BEND      FAIR      36  25  64 W3        30.41S
JUNEAU         FAIR      33  24  69 CALM      30.43S
$$

LSZ147-162-200600-
LAKE SUPERIOR

STATION/POSITION TIME  TEMP    WIND        PRES    WAVE
                       AIR SEA DIR/SP/G            HT/PER
                 (UTC) (F)     (DEG/KT/KT) (MB)    (FT/S)
DEVILS ISLAND    0500   46     220/  6/  7 1029.6R
SAXON HARBOR     0430   31     200/  5/  6 1028.4S
$$

LMZ867-665-643>646-200600-
LAKE MICHIGAN

STATION/POSITION TIME  TEMP    WIND        PRES    WAVE
                       AIR SEA DIR/SP/G            HT/PER
                 (UTC) (F)     (DEG/KT/KT) (MB)    (FT/S)
NORTHPORT PIER   0440   36                 1029.1R
KEWAUNEE LAKESHO 0448   31     300/  3/  4 1028.8R
SHEBOYGAN LAKESH 0500   44     290/ 12/ 15 1029.9R
PORT WASHINGTON  0430   41     290/  6/  9 1030.5S
MILWAUKEE LAKESH 0430   42     290/ 10/ 12   N/A
KENOSHA   LAKESH 0500   40                 1030.1
$$

TC  - TEMPERATURE IN CELSIUS
VSB - VISIBILITY IN STATUTE MILES
WCI - WIND CHILL INDEX
HX  - HEAT INDEX





USA.gov is the U.S. government's official web portal to all federal, state and local government web resources and services.